Flag for Switzerland Weather past 2 weeks in Altstätten, St. Gallen, Switzerland

36 °F


Feels Like: 36 °F
Forecast: 20 / 33 °F
Wind: 1 mph from North

Location: Saint Gallen-Altenrhein

Current Time: Nov 26, 2015 at 1:52:30 AM

Latest Report: Nov 26, 2015 at 1:20 AM

Visibility: 3 mi

Pressure: 29.77 "Hg

Humidity: 100%

Dew point: 36 °F

Location of AltstättenLocation

Historic Weather in Altstätten — Graph


Altstätten temperature yesterday

Maximum temperature yesterday: 41 °F (at 12:50 PM)
Minimum temperature yesterday: 32 °F (at 3:50 AM)
Average temperature yesterday: 37 °F

Past Weeks' High & Low Weather Summary

High64 °F (Nov 19, 11:20 PM)100% (Nov 11, 12:20 AM)30.48 "Hg (Nov 11, 12:20 AM)
Low25 °F (Nov 24, 4:50 AM)41% (Nov 19, 1:50 AM)29.42 "Hg (Nov 21, 1:50 PM)
Average45 °F83%30.10 "Hg
* Reported Nov 11 12:20 AM — Nov 26 12:20 AM, Altstätten, Weather by CustomWeather, © 2015

Note: Actual official high and low records may vary slightly from our data, if they occured in-between our weather recording intervals... More about our weather records


Altstätten weather history for previous 24 hours

Time TempWeatherWind HumidityBarometerVisibility
12:20 AM
Thu, Nov 26
36 °FPassing clouds.5 mph100%29.77 "Hg3 mi
11:50 PM
Wed, Nov 25
37 °FFog.3 mph100%29.77 "Hg2 mi
11:20 PM36 °FPassing clouds.3 mph100%29.74 "Hg4 mi
10:50 PM37 °FPartly cloudy.5 mph93%29.74 "Hg6 mi
10:20 PM37 °FPartly cloudy.5 mph93%29.77 "HgN/A
9:50 PM37 °FLight rain. Passing clouds.7 mph100%29.77 "Hg6 mi
9:20 PM37 °FLight rain. Passing clouds.6 mph100%29.77 "HgN/A
8:50 PM37 °FLight rain. Passing clouds.6 mph100%29.77 "Hg4 mi
8:20 PM37 °FLight rain. Passing clouds.5 mph100%29.77 "HgN/A
7:50 PM39 °FRain. Partly cloudy.5 mph87%29.77 "Hg6 mi
7:20 PM39 °FLight rain. Passing clouds.3 mph93%29.77 "Hg5 mi
6:50 PM39 °FPassing clouds.5 mph87%29.77 "HgN/A
6:20 PM39 °FPassing clouds.7 mph87%29.77 "HgN/A
5:50 PM39 °FPassing clouds.13 mph93%29.77 "HgN/A
5:20 PM39 °FLight rain. Passing clouds.10 mph93%29.77 "HgN/A
4:50 PM39 °FLight rain. Passing clouds.7 mph93%29.77 "HgN/A
4:20 PM41 °FLight rain. Broken clouds.10 mph87%29.74 "HgN/A
3:50 PM39 °FLight rain. Broken clouds.2 mph100%29.74 "HgN/A
3:20 PM39 °FLight rain. Partly sunny.2 mph100%29.74 "HgN/A
2:50 PM39 °FPartly sunny.3 mph93%29.74 "HgN/A
2:20 PM39 °FPartly sunny.5 mph93%29.77 "HgN/A
1:50 PM41 °FScattered clouds.5 mph93%29.77 "HgN/A
1:20 PM41 °FBroken clouds.5 mph93%29.80 "HgN/A
12:50 PM41 °FBroken clouds.3 mph87%29.80 "HgN/A
12:20 PM39 °FBroken clouds.3 mph93%29.80 "HgN/A
11:50 AM37 °FLight rain. Broken clouds.3 mph100%29.83 "HgN/A
11:20 AM37 °FLight rain. Broken clouds.2 mph100%29.83 "HgN/A
10:50 AM37 °FLight rain. Partly sunny.1 mph100%29.83 "Hg4 mi
10:20 AM36 °FLight rain. Partly sunny.2 mph100%29.83 "Hg4 mi
9:50 AM36 °FLight rain. Partly sunny.3 mph100%29.86 "Hg4 mi
9:20 AM36 °FLight rain. Partly sunny.3 mph100%29.86 "Hg4 mi
8:50 AM36 °FLight rain. Broken clouds.3 mph100%29.86 "Hg4 mi
8:20 AM34 °FLight rain. Broken clouds.2 mph100%29.86 "Hg4 mi
7:50 AM34 °FLight rain. Partly sunny.2 mph100%29.86 "Hg5 mi
7:20 AM34 °FLight rain. Passing clouds.2 mph100%29.86 "Hg5 mi
6:50 AM34 °FLight rain. Passing clouds.2 mph100%29.86 "Hg4 mi
6:20 AM32 °FLight rain. Passing clouds.2 mph100%29.86 "Hg4 mi
5:50 AM32 °FLight snow. Passing clouds.2 mph100%29.86 "Hg4 mi
5:20 AM32 °FLight snow. Passing clouds.2 mph100%29.89 "HgN/A
4:20 AM32 °FSnow. Partly cloudy.6 mph100%29.89 "Hg1 mi
3:50 AM32 °FSnow flurries. Overcast.5 mph100%29.89 "Hg2 mi
3:20 AM37 °FSprinkles. Passing clouds.2 mph75%29.92 "HgN/A
2:50 AM37 °FPartly cloudy.5 mph70%29.92 "HgN/A
2:20 AM37 °FPassing clouds.5 mph60%29.92 "HgN/A
Weather by CustomWeather, © 2015

See weather overviewHow to use our weather pages